Time,TemperatureF,DewpointF,PressureIn,WindDirection,WindDirectionDegrees,WindSpeedMPH,WindSpeedGustMPH,Humidity,HourlyPrecipIn,Conditions,Clouds,dailyrainin,SoftwareType,DateUTC
2013-10-21 00:01:00,45.0,36.8,30.01,SSE,155,2.5,3.5,73,0.00,CLR,,0.00,WeatherDisplay:10.37,2013-10-21 04:01:00,
2013-10-21 00:02:00,45.0,36.8,30.01,South,177,2.4,3.5,73,0.00,CLR,,0.00,WeatherDisplay:10.37,2013-10-21 04:02:00,
2013-10-21 00:07:00,44.8,36.7,30.01,SSW,199,1.8,3.5,73,0.00,CLR,,0.00,WeatherDisplay:10.37,2013-10-21 04:07:00,
2013-10-21 00:12:00,44.8,36.7,30.01,South,177,1.8,2.3,73,0.00,CLR,,0.00,WeatherDisplay:10.37,2013-10-21 04:12:00,
2013-10-21 00:17:00,44.8,36.7,30.01,SSW,199,0.0,0.0,73,0.00,CLR,,0.00,WeatherDisplay:10.37,2013-10-21 04:17:00,
2013-10-21 00:22:00,44.6,36.5,30.01,SSW,199,0.3,2.3,73,0.00,CLR,,0.00,WeatherDisplay:10.37,2013-10-21 04:22:00,
2013-10-21 00:27:00,44.4,36.3,30.01,SSW,199,1.8,2.3,73,0.00,CLR,,0.00,WeatherDisplay:10.37,2013-10-21 04:27:00,
2013-10-21 00:32:00,44.4,36.3,30.01,SSW,199,1.8,2.3,73,0.00,CLR,,0.00,WeatherDisplay:10.37,2013-10-21 04:32:00,
2013-10-21 00:37:00,44.2,36.1,30.00,SSE,155,1.9,0.0,73,0.00,CLR,,0.00,WeatherDisplay:10.37,2013-10-21 04:37:00,
2013-10-21 00:42:00,44.2,36.1,30.00,South,177,0.0,2.3,73,0.00,CLR,,0.00,WeatherDisplay:10.37,2013-10-21 04:42:00,
2013-10-21 00:47:00,44.2,36.1,30.00,SSW,199,2.0,2.0,73,0.00,CLR,,0.00,WeatherDisplay:10.37,2013-10-21 04:47:00,
2013-10-21 00:52:00,44.2,36.5,30.00,SSE,155,1.6,0.0,74,0.00,CLR,,0.00,WeatherDisplay:10.37,2013-10-21 04:52:00,
2013-10-21 00:57:00,44.2,36.5,30.00,SSW,199,0.0,0.0,74,0.00,CLR,,0.00,WeatherDisplay:10.37,2013-10-21 04:57:00,
2013-10-21 01:02:00,44.2,36.5,30.00,South,177,2.0,2.3,74,0.00,CLR,,0.00,WeatherDisplay:10.37,2013-10-21 05:02:00,
2013-10-21 01:07:00,43.9,35.8,30.00,South,177,0.0,1.1,73,0.00,CLR,,0.00,WeatherDisplay:10.37,2013-10-21 05:07:00,
2013-10-21 01:12:00,43.9,36.1,30.00,SSE,155,0.0,0.0,74,0.00,CLR,,0.00,WeatherDisplay:10.37,2013-10-21 05:12:00,
2013-10-21 01:17:00,43.7,36.0,30.00,South,177,0.2,1.6,74,0.00,CLR,,0.00,WeatherDisplay:10.37,2013-10-21 05:17:00,
2013-10-21 01:22:00,43.7,36.0,30.00,SSW,199,0.6,1.1,74,0.00,CLR,,0.00,WeatherDisplay:10.37,2013-10-21 05:22:00,
2013-10-21 01:27:00,43.5,35.8,30.00,SSW,199,1.3,1.3,74,0.00,CLR,,0.00,WeatherDisplay:10.37,2013-10-21 05:27:00,
2013-10-21 01:32:00,43.3,35.6,30.00,SSW,199,0.0,0.0,74,0.00,CLR,,0.00,WeatherDisplay:10.37,2013-10-21 05:32:00,
2013-10-21 01:37:00,43.3,35.6,30.00,SSW,199,0.0,0.0,74,0.00,CLR,,0.00,WeatherDisplay:10.37,2013-10-21 05:37:00,
2013-10-21 01:42:00,43.2,35.4,30.00,SW,222,0.0,0.0,74,0.00,CLR,,0.00,WeatherDisplay:10.37,2013-10-21 05:42:00,
2013-10-21 01:47:00,43.2,35.4,30.00,SSW,199,0.0,0.0,74,0.00,CLR,,0.00,WeatherDisplay:10.37,2013-10-21 05:47:00,
2013-10-21 01:52:00,43.0,35.3,30.00,SW,222,0.0,0.0,74,0.00,CLR,,0.00,WeatherDisplay:10.37,2013-10-21 05:52:00,
2013-10-21 01:57:00,42.8,35.1,30.00,South,177,1.1,1.1,74,0.00,CLR,,0.00,WeatherDisplay:10.37,2013-10-21 05:57:00,
2013-10-21 02:02:00,42.6,34.9,30.00,South,177,2.2,2.3,74,0.00,CLR,,0.00,WeatherDisplay:10.37,2013-10-21 06:02:00,
2013-10-21 02:07:00,42.4,34.7,30.00,SSW,199,0.0,0.0,74,0.00,CLR,,0.00,WeatherDisplay:10.37,2013-10-21 06:07:00,
2013-10-21 02:12:00,42.4,34.7,30.00,SSW,199,0.0,0.0,74,0.00,CLR,,0.00,WeatherDisplay:10.37,2013-10-21 06:12:00,
2013-10-21 02:17:00,42.4,34.7,30.00,South,177,0.0,0.0,74,0.00,CLR,,0.00,WeatherDisplay:10.37,2013-10-21 06:17:00,
2013-10-21 02:22:00,42.4,34.7,30.00,SSW,199,1.5,1.6,74,0.00,CLR,,0.00,WeatherDisplay:10.37,2013-10-21 06:22:00,
2013-10-21 02:27:00,42.1,34.4,30.00,SSE,155,0.0,0.0,74,0.00,CLR,,0.00,WeatherDisplay:10.37,2013-10-21 06:27:00,
2013-10-21 02:32:00,42.1,34.4,30.01,South,177,0.2,1.6,74,0.00,CLR,,0.00,WeatherDisplay:10.37,2013-10-21 06:32:00,
2013-10-21 02:37:00,41.9,34.6,30.01,SSW,199,0.0,0.0,75,0.00,CLR,,0.00,WeatherDisplay:10.37,2013-10-21 06:37:00,
2013-10-21 02:42:00,41.7,34.4,30.01,WSW,245,0.0,0.0,75,0.00,CLR,,0.00,WeatherDisplay:10.37,2013-10-21 06:42:00,
2013-10-21 02:47:00,41.7,34.4,30.01,SW,222,0.0,0.0,75,0.00,CLR,,0.00,WeatherDisplay:10.37,2013-10-21 06:47:00,
2013-10-21 02:52:00,41.7,34.4,30.00,South,177,1.1,1.1,75,0.00,CLR,,0.00,WeatherDisplay:10.37,2013-10-21 06:52:00,
2013-10-21 02:57:00,41.5,34.2,30.00,SSW,199,1.3,1.3,75,0.00,CLR,,0.00,WeatherDisplay:10.37,2013-10-21 06:57:00,
2013-10-21 03:02:00,41.5,34.2,30.00,SSW,199,0.0,0.0,75,0.00,CLR,,0.00,WeatherDisplay:10.37,2013-10-21 07:02:00,
2013-10-21 03:07:00,41.5,34.2,30.00,SW,222,0.0,0.0,75,0.00,CLR,,0.00,WeatherDisplay:10.37,2013-10-21 07:07:00,
2013-10-21 03:12:00,41.5,34.5,30.00,SW,222,0.0,0.0,76,0.00,CLR,,0.00,WeatherDisplay:10.37,2013-10-21 07:12:00,
2013-10-21 03:17:00,41.5,34.5,30.00,South,177,0.0,0.0,76,0.00,CLR,,0.00,WeatherDisplay:10.37,2013-10-21 07:17:00,
2013-10-21 03:22:00,41.5,34.5,30.00,SSE,155,0.0,0.0,76,0.00,CLR,,0.00,WeatherDisplay:10.37,2013-10-21 07:22:00,
2013-10-21 03:27:00,41.4,34.4,30.00,South,177,0.0,0.0,76,0.00,CLR,,0.00,WeatherDisplay:10.37,2013-10-21 07:27:00,
2013-10-21 03:32:00,41.2,33.9,30.00,South,177,0.0,0.0,75,0.00,CLR,,0.00,WeatherDisplay:10.37,2013-10-21 07:32:00,
2013-10-21 03:37:00,41.0,33.7,30.00,South,177,1.2,1.6,75,0.00,CLR,,0.00,WeatherDisplay:10.37,2013-10-21 07:37:00,
2013-10-21 03:42:00,40.8,33.8,30.00,SSW,199,1.3,1.3,76,0.00,CLR,,0.00,WeatherDisplay:10.37,2013-10-21 07:42:00,
2013-10-21 03:47:00,40.8,33.8,30.00,South,177,0.0,0.0,76,0.00,CLR,,0.00,WeatherDisplay:10.37,2013-10-21 07:47:00,
2013-10-21 03:52:00,40.8,33.8,30.00,South,177,0.0,0.0,76,0.00,CLR,,0.00,WeatherDisplay:10.37,2013-10-21 07:52:00,
2013-10-21 03:57:00,40.8,33.8,30.00,South,177,1.0,1.1,76,0.00,CLR,,0.00,WeatherDisplay:10.37,2013-10-21 07:57:00,
2013-10-21 04:02:00,40.6,33.7,30.00,South,177,0.0,0.0,76,0.00,CLR,,0.00,WeatherDisplay:10.37,2013-10-21 08:02:00,
2013-10-21 04:07:00,40.6,33.7,30.00,SW,222,0.5,2.3,76,0.00,CLR,,0.00,WeatherDisplay:10.37,2013-10-21 08:07:00,
2013-10-21 04:12:00,40.6,34.0,30.00,South,177,0.0,0.0,77,0.00,CLR,,0.00,WeatherDisplay:10.37,2013-10-21 08:12:00,
2013-10-21 04:17:00,40.6,34.0,30.01,SSW,199,0.0,0.0,77,0.00,CLR,,0.00,WeatherDisplay:10.37,2013-10-21 08:17:00,
2013-10-21 04:22:00,40.6,34.0,30.01,SSW,199,0.0,0.0,77,0.00,CLR,,0.00,WeatherDisplay:10.37,2013-10-21 08:22:00,
2013-10-21 04:27:00,40.3,33.3,30.01,South,177,0.0,0.0,76,0.00,CLR,,0.00,WeatherDisplay:10.37,2013-10-21 08:27:00,
2013-10-21 04:32:00,40.1,33.1,30.00,South,177,0.0,0.0,76,0.00,CLR,,0.00,WeatherDisplay:10.37,2013-10-21 08:32:00,
2013-10-21 04:37:00,40.1,33.1,30.00,SSE,155,0.0,0.0,76,0.00,CLR,,0.00,WeatherDisplay:10.37,2013-10-21 08:37:00,
2013-10-21 04:42:00,40.1,33.1,30.00,South,177,0.0,0.0,76,0.00,CLR,,0.00,WeatherDisplay:10.37,2013-10-21 08:42:00,
2013-10-21 04:47:00,39.7,32.8,30.00,South,177,1.8,2.3,76,0.00,CLR,,0.00,WeatherDisplay:10.37,2013-10-21 08:47:00,
2013-10-21 04:52:00,39.7,32.8,30.00,SSE,155,0.0,0.0,76,0.00,CLR,,0.00,WeatherDisplay:10.37,2013-10-21 08:52:00,
2013-10-21 04:57:00,39.7,33.1,30.00,SSE,155,0.0,0.0,77,0.00,CLR,,0.00,WeatherDisplay:10.37,2013-10-21 08:57:00,
2013-10-21 05:02:00,39.7,33.1,30.00,South,177,0.0,0.0,77,0.00,CLR,,0.00,WeatherDisplay:10.37,2013-10-21 09:02:00,
2013-10-21 05:07:00,39.7,33.1,30.00,South,177,0.0,0.0,77,0.00,CLR,,0.00,WeatherDisplay:10.37,2013-10-21 09:07:00,
2013-10-21 05:12:00,39.7,33.1,30.00,SSE,155,0.0,0.0,77,0.00,CLR,,0.00,WeatherDisplay:10.37,2013-10-21 09:12:00,
2013-10-21 05:17:00,39.6,32.9,30.00,SSE,155,0.0,0.0,77,0.00,CLR,,0.00,WeatherDisplay:10.37,2013-10-21 09:17:00,
2013-10-21 05:22:00,39.6,32.9,30.00,SSE,155,0.0,0.0,77,0.00,CLR,,0.00,WeatherDisplay:10.37,2013-10-21 09:22:00,
2013-10-21 05:27:00,39.4,33.1,30.00,SSE,155,0.0,0.0,78,0.00,CLR,,0.00,WeatherDisplay:10.37,2013-10-21 09:27:00,
2013-10-21 05:32:00,39.2,32.9,30.00,SSE,155,0.0,0.0,78,0.00,CLR,,0.00,WeatherDisplay:10.37,2013-10-21 09:32:00,
2013-10-21 05:37:00,39.2,32.9,30.00,South,177,0.0,0.0,78,0.00,CLR,,0.00,WeatherDisplay:10.37,2013-10-21 09:37:00,
2013-10-21 05:42:00,39.2,32.9,30.00,South,177,0.0,0.0,78,0.00,CLR,,0.00,WeatherDisplay:10.37,2013-10-21 09:42:00,
2013-10-21 05:47:00,39.2,32.9,30.00,SSE,155,0.0,0.0,78,0.00,CLR,,0.00,WeatherDisplay:10.37,2013-10-21 09:47:00,
2013-10-21 05:52:00,39.2,32.9,30.01,SSE,155,0.0,0.0,78,0.00,CLR,,0.00,WeatherDisplay:10.37,2013-10-21 09:52:00,
2013-10-21 05:57:00,38.8,32.6,30.01,South,177,0.0,0.0,78,0.00,CLR,,0.00,WeatherDisplay:10.37,2013-10-21 09:57:00,
2013-10-21 06:02:00,38.8,32.6,30.01,SSE,155,0.0,0.0,78,0.00,CLR,,0.00,WeatherDisplay:10.37,2013-10-21 10:02:00,
2013-10-21 06:07:00,38.8,32.6,30.01,SSE,155,0.0,0.0,78,0.00,CLR,,0.00,WeatherDisplay:10.37,2013-10-21 10:07:00,
2013-10-21 06:12:00,38.8,32.6,30.01,SSW,199,0.0,0.0,78,0.00,CLR,,0.00,WeatherDisplay:10.37,2013-10-21 10:12:00,
2013-10-21 06:17:00,38.5,32.2,30.01,SSE,155,0.0,0.0,78,0.00,CLR,,0.00,WeatherDisplay:10.37,2013-10-21 10:17:00,
2013-10-21 06:22:00,38.5,32.2,30.01,SSE,155,0.0,0.0,78,0.00,CLR,,0.00,WeatherDisplay:10.37,2013-10-21 10:22:00,
2013-10-21 06:27:00,38.5,32.2,30.02,South,177,0.0,0.0,78,0.00,CLR,,0.00,WeatherDisplay:10.37,2013-10-21 10:27:00,
2013-10-21 06:32:00,38.5,32.2,30.02,SSW,199,0.0,0.0,78,0.00,CLR,,0.00,WeatherDisplay:10.37,2013-10-21 10:32:00,
2013-10-21 06:37:00,38.5,32.2,30.02,SSW,199,0.0,0.0,78,0.00,CLR,,0.00,WeatherDisplay:10.37,2013-10-21 10:37:00,
2013-10-21 06:42:00,38.3,32.0,30.02,South,177,0.0,0.0,78,0.00,CLR,,0.00,WeatherDisplay:10.37,2013-10-21 10:42:00,
2013-10-21 06:47:00,38.3,32.4,30.02,South,177,0.0,0.0,79,0.00,CLR,,0.00,WeatherDisplay:10.37,2013-10-21 10:47:00,
2013-10-21 06:52:00,38.3,32.4,30.02,South,177,0.0,0.0,79,0.00,CLR,,0.00,WeatherDisplay:10.37,2013-10-21 10:52:00,
2013-10-21 06:57:00,38.3,32.4,30.02,SSW,199,0.0,0.0,79,0.00,CLR,,0.00,WeatherDisplay:10.37,2013-10-21 10:57:00,
2013-10-21 07:02:00,38.1,32.2,30.02,SSW,199,0.4,0.0,79,0.00,CLR,,0.00,WeatherDisplay:10.37,2013-10-21 11:02:00,
2013-10-21 07:07:00,38.1,32.2,30.02,SSW,199,2.3,2.5,79,0.00,CLR,,0.00,WeatherDisplay:10.37,2013-10-21 11:07:00,
2013-10-21 07:12:00,37.9,32.0,30.02,SSW,199,0.0,0.0,79,0.00,CLR,,0.00,WeatherDisplay:10.37,2013-10-21 11:12:00,
2013-10-21 07:17:00,37.9,32.0,30.02,SSW,199,0.0,0.0,79,0.00,CLR,,0.00,WeatherDisplay:10.37,2013-10-21 11:17:00,
2013-10-21 07:22:00,37.9,32.0,30.02,SSW,199,0.0,1.1,79,0.00,CLR,,0.00,WeatherDisplay:10.37,2013-10-21 11:22:00,
2013-10-21 07:27:00,37.9,32.0,30.03,SW,222,0.0,2.3,79,0.00,CLR,,0.00,WeatherDisplay:10.37,2013-10-21 11:27:00,
2013-10-21 07:32:00,37.9,32.0,30.03,South,177,1.3,1.3,79,0.00,CLR,,0.00,WeatherDisplay:10.37,2013-10-21 11:32:00,
2013-10-21 07:37:00,37.9,32.0,30.02,SW,222,0.0,0.0,79,0.00,CLR,,0.00,WeatherDisplay:10.37,2013-10-21 11:37:00,
2013-10-21 07:42:00,37.9,32.0,30.02,South,177,0.0,0.0,79,0.00,CLR,,0.00,WeatherDisplay:10.37,2013-10-21 11:42:00,
2013-10-21 07:47:00,37.9,32.0,30.02,SSW,199,0.0,0.0,79,0.00,CLR,,0.00,WeatherDisplay:10.37,2013-10-21 11:47:00,
2013-10-21 07:52:00,37.9,32.0,30.02,SSW,199,0.6,2.3,79,0.00,CLR,,0.00,WeatherDisplay:10.37,2013-10-21 11:52:00,
2013-10-21 07:57:00,37.9,32.0,30.03,SSW,199,3.1,3.5,79,0.00,CLR,,0.00,WeatherDisplay:10.37,2013-10-21 11:57:00,
2013-10-21 08:02:00,37.9,32.0,30.03,SSE,155,0.2,1.1,79,0.00,CLR,,0.00,WeatherDisplay:10.37,2013-10-21 12:02:00,
2013-10-21 08:07:00,37.9,32.3,30.03,South,177,0.0,0.0,80,0.00,CLR,,0.00,WeatherDisplay:10.37,2013-10-21 12:07:00,
2013-10-21 08:12:00,37.9,32.3,30.03,South,177,0.0,0.0,80,0.00,CLR,,0.00,WeatherDisplay:10.37,2013-10-21 12:12:00,
2013-10-21 08:17:00,37.9,32.3,30.02,South,177,0.6,2.3,80,0.00,CLR,,0.00,WeatherDisplay:10.37,2013-10-21 12:17:00,
2013-10-21 08:22:00,37.9,32.3,30.03,South,177,1.4,3.5,80,0.00,CLR,,0.00,WeatherDisplay:10.37,2013-10-21 12:22:00,
2013-10-21 08:27:00,38.1,32.5,30.03,South,177,0.7,1.1,80,0.00,CLR,,0.00,WeatherDisplay:10.37,2013-10-21 12:27:00,
2013-10-21 08:32:00,38.3,32.7,30.03,SSE,155,0.1,2.3,80,0.00,CLR,,0.00,WeatherDisplay:10.37,2013-10-21 12:32:00,
2013-10-21 08:37:00,38.3,32.7,30.03,SSW,199,2.2,2.3,80,0.00,CLR,,0.00,WeatherDisplay:10.37,2013-10-21 12:37:00,
2013-10-21 08:42:00,38.3,33.0,30.03,West,267,2.1,0.0,81,0.00,CLR,,0.00,WeatherDisplay:10.37,2013-10-21 12:42:00,
2013-10-21 08:47:00,38.8,33.5,30.03,SW,222,0.0,0.0,81,0.00,CLR,,0.00,WeatherDisplay:10.37,2013-10-21 12:47:00,
2013-10-21 08:52:00,39.0,33.7,30.03,West,267,0.0,2.3,81,0.00,CLR,,0.00,WeatherDisplay:10.37,2013-10-21 12:52:00,
2013-10-21 08:57:00,39.0,33.7,30.03,SSW,199,3.1,3.5,81,0.00,CLR,,0.00,WeatherDisplay:10.37,2013-10-21 12:57:00,
2013-10-21 09:02:00,39.4,34.0,30.03,WSW,245,1.3,1.3,81,0.00,CLR,,0.00,WeatherDisplay:10.37,2013-10-21 13:02:00,
2013-10-21 09:07:00,39.7,34.4,30.04,South,177,2.0,2.3,81,0.00,CLR,,0.00,WeatherDisplay:10.37,2013-10-21 13:07:00,
2013-10-21 09:12:00,39.9,34.6,30.03,West,267,3.6,3.6,81,0.00,CLR,,0.00,WeatherDisplay:10.37,2013-10-21 13:12:00,
2013-10-21 09:17:00,40.3,34.9,30.04,SSW,199,0.0,0.0,81,0.00,CLR,,0.00,WeatherDisplay:10.37,2013-10-21 13:17:00,
2013-10-21 09:22:00,40.6,35.3,30.03,SSE,155,0.0,0.0,81,0.00,CLR,,0.00,WeatherDisplay:10.37,2013-10-21 13:22:00,
2013-10-21 09:27:00,41.2,35.8,30.03,SSW,199,1.9,3.5,81,0.00,CLR,,0.00,WeatherDisplay:10.37,2013-10-21 13:27:00,
2013-10-21 09:32:00,41.7,36.3,30.03,SSW,199,1.8,4.6,81,0.00,CLR,,0.00,WeatherDisplay:10.37,2013-10-21 13:32:00,
2013-10-21 09:37:00,42.3,36.5,30.03,SSW,199,6.3,8.1,80,0.00,CLR,,0.00,WeatherDisplay:10.37,2013-10-21 13:37:00,
2013-10-21 09:42:00,43.2,37.7,30.03,West,267,2.6,5.8,81,0.00,CLR,,0.00,WeatherDisplay:10.37,2013-10-21 13:42:00,
2013-10-21 09:47:00,44.1,38.3,30.03,SSW,199,6.9,6.9,80,0.00,CLR,,0.00,WeatherDisplay:10.37,2013-10-21 13:47:00,
2013-10-21 09:52:00,45.5,39.7,30.03,South,177,1.8,4.6,80,0.00,CLR,,0.00,WeatherDisplay:10.37,2013-10-21 13:52:00,
2013-10-21 09:57:00,46.6,40.7,30.03,WSW,245,2.7,2.7,80,0.00,CLR,,0.00,WeatherDisplay:10.37,2013-10-21 13:57:00,
2013-10-21 10:02:00,48.0,41.8,30.03,WSW,245,4.0,4.0,79,0.00,CLR,,0.00,WeatherDisplay:10.37,2013-10-21 14:02:00,
2013-10-21 10:07:00,48.7,42.2,30.03,NNW,335,3.0,6.9,78,0.00,CLR,,0.00,WeatherDisplay:10.37,2013-10-21 14:07:00,
2013-10-21 10:12:00,50.2,43.2,30.03,SW,222,5.5,5.8,77,0.00,CLR,,0.00,WeatherDisplay:10.37,2013-10-21 14:12:00,
2013-10-21 10:17:00,51.6,44.3,30.02,SSW,199,6.5,6.9,76,0.00,CLR,,0.00,WeatherDisplay:10.37,2013-10-21 14:17:00,
2013-10-21 10:22:00,52.2,44.1,30.02,South,177,1.2,4.6,74,0.00,CLR,,0.00,WeatherDisplay:10.37,2013-10-21 14:22:00,
2013-10-21 10:27:00,54.0,45.9,30.02,South,177,5.1,5.1,74,0.00,CLR,,0.00,WeatherDisplay:10.37,2013-10-21 14:27:00,
2013-10-21 10:32:00,55.0,46.2,30.02,SSE,155,2.2,2.3,72,0.00,CLR,,0.00,WeatherDisplay:10.37,2013-10-21 14:32:00,
2013-10-21 10:37:00,56.5,46.8,30.02,WSW,245,7.6,8.1,70,0.00,CLR,,0.00,WeatherDisplay:10.37,2013-10-21 14:37:00,
2013-10-21 10:42:00,57.4,47.3,30.03,SSW,199,2.2,2.3,69,0.00,CLR,,0.00,WeatherDisplay:10.37,2013-10-21 14:42:00,
2013-10-21 10:47:00,57.4,46.9,30.02,SE,132,6.5,6.9,68,0.00,CLR,,0.00,WeatherDisplay:10.37,2013-10-21 14:47:00,
2013-10-21 10:52:00,58.6,47.3,30.02,SW,222,1.6,1.6,66,0.00,CLR,,0.00,WeatherDisplay:10.37,2013-10-21 14:52:00,
2013-10-21 10:57:00,59.0,47.7,30.02,SSW,199,3.2,4.6,66,0.00,CLR,,0.00,WeatherDisplay:10.37,2013-10-21 14:57:00,
2013-10-21 11:02:00,59.5,47.8,30.02,West,267,1.1,1.3,65,0.00,CLR,,0.00,WeatherDisplay:10.37,2013-10-21 15:02:00,
2013-10-21 11:07:00,60.1,48.3,30.02,WSW,245,2.7,3.5,65,0.00,CLR,,0.00,WeatherDisplay:10.37,2013-10-21 15:07:00,
2013-10-21 11:12:00,61.2,48.5,30.02,SE,132,4.0,4.0,63,0.00,CLR,,0.00,WeatherDisplay:10.37,2013-10-21 15:12:00,
2013-10-21 11:17:00,61.7,48.5,30.02,South,177,2.7,2.7,62,0.00,CLR,,0.00,WeatherDisplay:10.37,2013-10-21 15:17:00,
2013-10-21 11:22:00,62.2,49.1,30.02,SW,222,4.5,4.6,62,0.00,CLR,,0.00,WeatherDisplay:10.37,2013-10-21 15:22:00,
2013-10-21 11:27:00,62.6,49.0,30.02,South,177,4.0,4.0,61,0.00,CLR,,0.00,WeatherDisplay:10.37,2013-10-21 15:27:00,
2013-10-21 11:32:00,63.7,49.5,30.02,WSW,245,4.1,4.6,60,0.00,CLR,,0.00,WeatherDisplay:10.37,2013-10-21 15:32:00,
2013-10-21 11:37:00,64.2,49.6,30.02,SW,222,2.1,2.3,59,0.00,CLR,,0.00,WeatherDisplay:10.37,2013-10-21 15:37:00,
2013-10-21 11:42:00,64.8,50.1,30.02,West,267,3.6,4.2,59,0.00,CLR,,0.00,WeatherDisplay:10.37,2013-10-21 15:42:00,
2013-10-21 11:47:00,65.1,49.5,30.02,WSW,245,3.9,5.8,57,0.00,CLR,,0.00,WeatherDisplay:10.37,2013-10-21 15:47:00,
2013-10-21 11:52:00,65.5,49.8,30.02,SW,222,6.9,8.3,57,0.00,CLR,,0.00,WeatherDisplay:10.37,2013-10-21 15:52:00,
2013-10-21 11:57:00,65.7,49.0,30.02,SSW,199,2.5,2.5,55,0.00,CLR,,0.00,WeatherDisplay:10.37,2013-10-21 15:57:00,
2013-10-21 12:02:00,65.7,49.0,30.01,SSW,199,5.7,8.1,55,0.00,CLR,,0.00,WeatherDisplay:10.37,2013-10-21 16:02:00,
2013-10-21 12:07:00,65.7,49.0,30.02,SSW,199,4.5,4.6,55,0.00,CLR,,0.00,WeatherDisplay:10.37,2013-10-21 16:07:00,
2013-10-21 12:12:00,66.7,50.1,30.02,South,177,8.0,8.1,55,0.00,CLR,,0.00,WeatherDisplay:10.37,2013-10-21 16:12:00,
2013-10-21 12:17:00,67.3,49.6,30.01,SW,222,8.2,8.2,53,0.00,CLR,,0.00,WeatherDisplay:10.37,2013-10-21 16:17:00,
2013-10-21 12:22:00,67.8,50.1,30.01,WNW,289,9.6,9.6,53,0.00,CLR,,0.00,WeatherDisplay:10.37,2013-10-21 16:22:00,
2013-10-21 12:27:00,67.8,49.0,30.00,SW,222,5.7,10.3,51,0.00,CLR,,0.00,WeatherDisplay:10.37,2013-10-21 16:27:00,
2013-10-21 12:32:00,67.3,48.5,30.01,WSW,245,5.3,5.8,51,0.00,CLR,,0.00,WeatherDisplay:10.37,2013-10-21 16:32:00,
2013-10-21 12:37:00,67.3,48.5,30.00,West,267,10.9,11.5,51,0.00,CLR,,0.00,WeatherDisplay:10.37,2013-10-21 16:37:00,
2013-10-21 12:42:00,67.6,49.4,30.00,WNW,289,3.8,3.8,52,0.00,CLR,,0.00,WeatherDisplay:10.37,2013-10-21 16:42:00,
2013-10-21 12:47:00,68.2,49.9,30.00,WSW,245,5.2,8.1,52,0.00,CLR,,0.00,WeatherDisplay:10.37,2013-10-21 16:47:00,
2013-10-21 12:52:00,69.1,50.2,30.00,West,267,4.7,4.7,51,0.00,CLR,,0.00,WeatherDisplay:10.37,2013-10-21 16:52:00,
2013-10-21 12:57:00,69.4,50.0,30.00,SE,132,5.8,6.5,50,0.00,CLR,,0.00,WeatherDisplay:10.37,2013-10-21 16:57:00,
2013-10-21 13:02:00,70.0,49.9,29.99,SW,222,8.3,10.5,49,0.00,CLR,,0.00,WeatherDisplay:10.37,2013-10-21 17:02:00,
2013-10-21 13:07:00,70.0,49.9,29.99,South,177,4.0,4.0,49,0.00,CLR,,0.00,WeatherDisplay:10.37,2013-10-21 17:07:00,
2013-10-21 13:12:00,70.3,50.3,29.99,West,267,3.2,5.1,49,0.00,CLR,,0.00,WeatherDisplay:10.37,2013-10-21 17:12:00,
2013-10-21 13:17:00,70.5,49.3,29.98,West,267,8.2,9.2,47,0.00,CLR,,0.00,WeatherDisplay:10.37,2013-10-21 17:17:00,
2013-10-21 13:22:00,70.3,49.7,29.99,SSW,199,7.7,8.1,48,0.00,CLR,,0.00,WeatherDisplay:10.37,2013-10-21 17:22:00,
2013-10-21 13:27:00,70.5,49.3,29.98,SSE,155,5.4,5.8,47,0.00,CLR,,0.00,WeatherDisplay:10.37,2013-10-21 17:27:00,
2013-10-21 13:32:00,71.2,50.0,29.98,SW,222,15.5,18.4,47,0.00,CLR,,0.00,WeatherDisplay:10.37,2013-10-21 17:32:00,
2013-10-21 13:37:00,71.4,48.4,29.98,SW,222,7.6,8.1,44,0.00,CLR,,0.00,WeatherDisplay:10.37,2013-10-21 17:37:00,
2013-10-21 13:42:00,71.4,48.4,29.98,WSW,245,2.7,4.7,44,0.00,CLR,,0.00,WeatherDisplay:10.37,2013-10-21 17:42:00,
2013-10-21 13:47:00,71.2,47.6,29.98,WSW,245,10.7,11.5,43,0.00,CLR,,0.00,WeatherDisplay:10.37,2013-10-21 17:47:00,
2013-10-21 13:52:00,71.1,47.4,29.98,SW,222,6.0,6.0,43,0.00,CLR,,0.00,WeatherDisplay:10.37,2013-10-21 17:52:00,
2013-10-21 13:57:00,71.2,48.2,29.98,WSW,245,14.5,15.0,44,0.00,CLR,,0.00,WeatherDisplay:10.37,2013-10-21 17:57:00,
2013-10-21 14:02:00,71.2,47.0,29.98,West,267,3.8,4.6,42,0.00,CLR,,0.00,WeatherDisplay:10.37,2013-10-21 18:02:00,
2013-10-21 14:07:00,71.2,47.6,29.98,WSW,245,13.6,13.8,43,0.00,CLR,,0.00,WeatherDisplay:10.37,2013-10-21 18:07:00,
2013-10-21 14:12:00,71.4,47.7,29.98,SW,222,5.4,5.4,43,0.00,CLR,,0.00,WeatherDisplay:10.37,2013-10-21 18:12:00,
2013-10-21 14:17:00,71.4,47.7,29.98,West,267,4.7,9.2,43,0.00,CLR,,0.00,WeatherDisplay:10.37,2013-10-21 18:17:00,
2013-10-21 14:22:00,71.6,48.5,29.97,WSW,245,8.4,8.4,44,0.00,CLR,,0.00,WeatherDisplay:10.37,2013-10-21 18:22:00,
2013-10-21 14:27:00,72.3,48.6,29.96,West,267,5.6,5.8,43,0.00,CLR,,0.00,WeatherDisplay:10.37,2013-10-21 18:27:00,
2013-10-21 14:32:00,71.8,47.4,29.96,South,177,7.5,8.5,42,0.00,CLR,,0.00,WeatherDisplay:10.37,2013-10-21 18:32:00,
2013-10-21 14:37:00,71.4,47.7,29.96,SSW,199,4.5,4.6,43,0.00,CLR,,0.00,WeatherDisplay:10.37,2013-10-21 18:37:00,
2013-10-21 14:42:00,71.8,48.1,29.95,South,177,6.9,8.1,43,0.00,CLR,,0.00,WeatherDisplay:10.37,2013-10-21 18:42:00,
2013-10-21 14:47:00,71.8,48.1,29.95,SW,222,10.3,19.7,43,0.00,CLR,,0.00,WeatherDisplay:10.37,2013-10-21 18:47:00,
2013-10-21 14:52:00,72.0,48.2,29.95,SSW,199,7.4,7.4,43,0.00,CLR,,0.00,WeatherDisplay:10.37,2013-10-21 18:52:00,
2013-10-21 14:57:00,72.5,48.1,29.95,SW,222,2.7,6.3,42,0.00,CLR,,0.00,WeatherDisplay:10.37,2013-10-21 18:57:00,
2013-10-21 15:02:00,72.7,48.3,29.95,SW,222,6.6,7.2,42,0.00,CLR,,0.00,WeatherDisplay:10.37,2013-10-21 19:02:00,
2013-10-21 15:07:00,72.0,47.6,29.95,SW,222,6.7,6.9,42,0.00,CLR,,0.00,WeatherDisplay:10.37,2013-10-21 19:07:00,
2013-10-21 15:12:00,72.0,47.6,29.95,WSW,245,11.8,11.8,42,0.00,FEW,,0.00,WeatherDisplay:10.37,2013-10-21 19:12:00,
2013-10-21 15:17:00,72.1,48.4,29.94,SSE,155,12.3,12.7,43,0.00,FEW,,0.00,WeatherDisplay:10.37,2013-10-21 19:17:00,
2013-10-21 15:22:00,72.3,48.6,29.94,WSW,245,10.5,11.5,43,0.00,FEW,,0.00,WeatherDisplay:10.37,2013-10-21 19:22:00,
2013-10-21 15:27:00,72.7,48.9,29.94,WSW,245,10.7,10.7,43,0.00,FEW,,0.00,WeatherDisplay:10.37,2013-10-21 19:27:00,
2013-10-21 15:32:00,72.9,48.4,29.94,SSW,199,5.1,8.1,42,0.00,FEW,,0.00,WeatherDisplay:10.37,2013-10-21 19:32:00,
2013-10-21 15:37:00,72.3,47.9,29.94,West,267,3.2,3.5,42,0.00,FEW,,0.00,WeatherDisplay:10.37,2013-10-21 19:37:00,
2013-10-21 15:42:00,72.1,47.8,29.94,SSW,199,6.3,6.3,42,0.00,FEW,,0.00,WeatherDisplay:10.37,2013-10-21 19:42:00,
2013-10-21 15:47:00,71.4,47.7,29.94,SSW,199,2.5,6.9,43,0.00,FEW,,0.00,WeatherDisplay:10.37,2013-10-21 19:47:00,
2013-10-21 15:52:00,71.4,47.7,29.94,West,267,3.4,4.6,43,0.00,FEW,,0.00,WeatherDisplay:10.37,2013-10-21 19:52:00,
2013-10-21 15:57:00,71.4,47.1,29.94,WSW,245,11.2,11.5,42,0.00,FEW,,0.00,WeatherDisplay:10.37,2013-10-21 19:57:00,
2013-10-21 16:02:00,71.6,47.3,29.93,SSE,155,9.9,10.4,42,0.00,FEW,,0.00,WeatherDisplay:10.37,2013-10-21 20:02:00,
2013-10-21 16:07:00,71.4,47.1,29.94,WSW,245,4.4,4.6,42,0.00,FEW,,0.00,WeatherDisplay:10.37,2013-10-21 20:07:00,
2013-10-21 16:12:00,71.2,47.0,29.93,WNW,289,6.7,6.9,42,0.00,SCT,,0.00,WeatherDisplay:10.37,2013-10-21 20:12:00,
2013-10-21 16:17:00,70.5,46.3,29.93,WSW,245,4.8,4.8,42,0.00,SCT,,0.00,WeatherDisplay:10.37,2013-10-21 20:17:00,
2013-10-21 16:22:00,70.3,46.8,29.93,West,267,2.5,2.5,43,0.00,SCT,,0.00,WeatherDisplay:10.37,2013-10-21 20:22:00,
2013-10-21 16:27:00,70.3,46.8,29.93,SW,222,10.2,12.7,43,0.00,SCT,,0.00,WeatherDisplay:10.37,2013-10-21 20:27:00,
2013-10-21 16:32:00,70.3,46.2,29.93,SSE,155,11.2,11.8,42,0.00,SCT,,0.00,WeatherDisplay:10.37,2013-10-21 20:32:00,
2013-10-21 16:37:00,70.3,46.2,29.93,WSW,245,3.8,3.8,42,0.00,SCT,,0.00,WeatherDisplay:10.37,2013-10-21 20:37:00,
2013-10-21 16:42:00,70.3,45.5,29.92,SSW,199,8.3,10.4,41,0.00,SCT,,0.00,WeatherDisplay:10.37,2013-10-21 20:42:00,
2013-10-21 16:47:00,70.0,44.5,29.92,West,267,6.3,6.3,40,0.00,SCT,,0.00,WeatherDisplay:10.37,2013-10-21 20:47:00,
2013-10-21 16:52:00,69.6,44.9,29.92,WSW,245,17.2,17.3,41,0.00,SCT,,0.00,WeatherDisplay:10.37,2013-10-21 20:52:00,
2013-10-21 16:57:00,69.3,45.2,29.92,South,177,3.3,4.6,42,0.00,SCT,,0.00,WeatherDisplay:10.37,2013-10-21 20:57:00,
2013-10-21 17:02:00,69.1,45.0,29.92,WNW,289,3.1,3.5,42,0.00,SCT,,0.00,WeatherDisplay:10.37,2013-10-21 21:02:00,
2013-10-21 17:07:00,68.9,44.9,29.92,SW,222,9.4,9.4,42,0.00,SCT,,0.00,WeatherDisplay:10.37,2013-10-21 21:07:00,
2013-10-21 17:12:00,68.4,45.0,29.92,WSW,245,4.0,4.6,43,0.00,BKN,,0.00,WeatherDisplay:10.37,2013-10-21 21:12:00,
2013-10-21 17:17:00,68.0,44.7,29.92,WSW,245,5.7,8.1,43,0.00,BKN,,0.00,WeatherDisplay:10.37,2013-10-21 21:17:00,
2013-10-21 17:22:00,67.8,44.5,29.92,SSW,199,2.0,2.3,43,0.00,BKN,,0.00,WeatherDisplay:10.37,2013-10-21 21:22:00,
2013-10-21 17:27:00,67.3,44.0,29.93,SW,222,2.8,4.6,43,0.00,BKN,,0.00,WeatherDisplay:10.37,2013-10-21 21:27:00,
2013-10-21 17:32:00,66.9,44.3,29.93,WSW,245,4.2,4.6,44,0.00,BKN,,0.00,WeatherDisplay:10.37,2013-10-21 21:32:00,
2013-10-21 17:37:00,66.6,44.5,29.94,West,267,4.0,4.0,45,0.00,BKN,,0.00,WeatherDisplay:10.37,2013-10-21 21:37:00,
2013-10-21 17:42:00,66.0,44.1,29.93,SW,222,1.8,2.3,45,0.00,BKN,,0.00,WeatherDisplay:10.37,2013-10-21 21:42:00,
2013-10-21 17:47:00,65.8,43.9,29.93,West,267,2.2,2.3,45,0.00,BKN,,0.00,WeatherDisplay:10.37,2013-10-21 21:47:00,
2013-10-21 17:52:00,65.7,44.3,29.94,SSW,199,6.5,6.9,46,0.00,BKN,,0.00,WeatherDisplay:10.37,2013-10-21 21:52:00,
2013-10-21 17:57:00,65.5,44.1,29.93,SW,222,4.9,6.9,46,0.00,BKN,,0.00,WeatherDisplay:10.37,2013-10-21 21:57:00,
2013-10-21 18:02:00,65.5,44.1,29.93,West,267,8.2,10.7,46,0.00,BKN,,0.00,WeatherDisplay:10.37,2013-10-21 22:02:00,
2013-10-21 18:07:00,65.5,44.1,29.93,SW,222,2.9,3.5,46,0.00,BKN,,0.00,WeatherDisplay:10.37,2013-10-21 22:07:00,
2013-10-21 18:12:00,65.1,43.8,29.93,West,267,0.4,1.1,46,0.00,OVC,,0.00,WeatherDisplay:10.37,2013-10-21 22:12:00,
2013-10-21 18:17:00,64.9,44.2,29.93,SW,222,0.0,0.0,47,0.00,OVC,,0.00,WeatherDisplay:10.37,2013-10-21 22:17:00,
2013-10-21 18:22:00,64.6,43.9,29.93,WSW,245,8.0,8.1,47,0.00,OVC,,0.00,WeatherDisplay:10.37,2013-10-21 22:22:00,
2013-10-21 18:27:00,64.2,43.6,29.93,WSW,245,3.3,3.6,47,0.00,OVC,,0.00,WeatherDisplay:10.37,2013-10-21 22:27:00,
2013-10-21 18:32:00,64.0,43.9,29.94,WSW,245,3.4,3.5,48,0.00,OVC,,0.00,WeatherDisplay:10.37,2013-10-21 22:32:00,
2013-10-21 18:37:00,63.7,43.6,29.94,West,267,2.2,2.3,48,0.00,OVC,,0.00,WeatherDisplay:10.37,2013-10-21 22:37:00,
2013-10-21 18:42:00,63.3,43.8,29.94,WNW,289,3.1,3.5,49,0.00,OVC,,0.00,WeatherDisplay:10.37,2013-10-21 22:42:00,
2013-10-21 18:47:00,63.1,43.7,29.94,West,267,3.0,3.5,49,0.00,OVC,,0.00,WeatherDisplay:10.37,2013-10-21 22:47:00,
2013-10-21 18:52:00,62.8,43.3,29.94,West,267,0.0,0.0,49,0.00,OVC,,0.00,WeatherDisplay:10.37,2013-10-21 22:52:00,
2013-10-21 18:57:00,62.2,42.8,29.94,WSW,245,1.3,1.3,49,0.00,OVC,,0.00,WeatherDisplay:10.37,2013-10-21 22:57:00,
2013-10-21 19:02:00,61.7,42.9,29.94,West,267,0.0,0.0,50,0.00,OVC,,0.00,WeatherDisplay:10.37,2013-10-21 23:02:00,
2013-10-21 19:07:00,61.3,42.5,29.94,WSW,245,0.0,0.0,50,0.00,OVC,,0.00,WeatherDisplay:10.37,2013-10-21 23:07:00,
2013-10-21 19:12:00,60.6,42.4,29.94,SW,222,0.0,0.0,51,0.00,SCT,,0.00,WeatherDisplay:10.37,2013-10-21 23:12:00,
2013-10-21 19:17:00,60.1,42.4,29.94,SSW,199,0.0,0.0,52,0.00,SCT,,0.00,WeatherDisplay:10.37,2013-10-21 23:17:00,
2013-10-21 19:22:00,59.5,41.9,29.93,SSW,199,0.0,0.0,52,0.00,SCT,,0.00,WeatherDisplay:10.37,2013-10-21 23:22:00,
2013-10-21 19:27:00,58.8,42.2,29.94,WSW,245,0.0,0.0,54,0.00,SCT,,0.00,WeatherDisplay:10.37,2013-10-21 23:27:00,
2013-10-21 19:32:00,58.6,42.5,29.94,SW,222,0.0,0.0,55,0.00,SCT,,0.00,WeatherDisplay:10.37,2013-10-21 23:32:00,
2013-10-21 19:37:00,58.1,42.5,29.94,WSW,245,1.3,1.3,56,0.00,SCT,,0.00,WeatherDisplay:10.37,2013-10-21 23:37:00,
2013-10-21 19:42:00,57.6,42.0,29.94,West,267,0.0,0.0,56,0.00,SCT,,0.00,WeatherDisplay:10.37,2013-10-21 23:42:00,
2013-10-21 19:47:00,57.4,42.3,29.94,West,267,0.0,0.0,57,0.00,SCT,,0.00,WeatherDisplay:10.37,2013-10-21 23:47:00,
2013-10-21 19:52:00,57.0,41.9,29.94,West,267,0.0,0.0,57,0.00,SCT,,0.00,WeatherDisplay:10.37,2013-10-21 23:52:00,
2013-10-21 19:57:00,56.8,42.2,29.94,WSW,245,0.0,0.0,58,0.00,SCT,,0.00,WeatherDisplay:10.37,2013-10-21 23:57:00,
2013-10-21 20:02:00,56.5,42.3,29.95,SW,222,0.0,0.0,59,0.00,SCT,,0.00,WeatherDisplay:10.37,2013-10-22 00:02:00,
2013-10-21 20:07:00,56.1,42.0,29.95,SW,222,0.0,0.0,59,0.00,SCT,,0.00,WeatherDisplay:10.37,2013-10-22 00:07:00,
2013-10-21 20:12:00,55.9,42.2,29.95,SW,222,0.0,0.0,60,0.00,OVC,,0.00,WeatherDisplay:10.37,2013-10-22 00:12:00,
2013-10-21 20:17:00,55.9,42.2,29.95,WSW,245,1.1,1.1,60,0.00,OVC,,0.00,WeatherDisplay:10.37,2013-10-22 00:17:00,
2013-10-21 20:22:00,55.8,42.5,29.95,West,267,1.1,1.1,61,0.00,OVC,,0.00,WeatherDisplay:10.37,2013-10-22 00:22:00,
2013-10-21 20:27:00,55.6,42.3,29.94,WSW,245,1.5,2.3,61,0.00,OVC,,0.00,WeatherDisplay:10.37,2013-10-22 00:27:00,
2013-10-21 20:32:00,55.4,42.2,29.95,WSW,245,0.0,0.0,61,0.00,OVC,,0.00,WeatherDisplay:10.37,2013-10-22 00:32:00,
2013-10-21 20:37:00,55.2,42.0,29.94,West,267,0.0,0.0,61,0.00,OVC,,0.00,WeatherDisplay:10.37,2013-10-22 00:37:00,
2013-10-21 20:42:00,55.2,42.0,29.94,WSW,245,0.0,0.0,61,0.00,OVC,,0.00,WeatherDisplay:10.37,2013-10-22 00:42:00,
2013-10-21 20:47:00,55.2,42.0,29.94,SW,222,2.5,2.5,61,0.00,OVC,,0.00,WeatherDisplay:10.37,2013-10-22 00:47:00,
2013-10-21 20:52:00,55.0,42.3,29.94,West,267,0.6,1.1,62,0.00,OVC,,0.00,WeatherDisplay:10.37,2013-10-22 00:52:00,
2013-10-21 20:57:00,55.0,42.3,29.94,WSW,245,2.5,3.5,62,0.00,OVC,,0.00,WeatherDisplay:10.37,2013-10-22 00:57:00,
2013-10-21 21:02:00,55.0,42.3,29.94,West,267,0.0,0.0,62,0.00,OVC,,0.00,WeatherDisplay:10.37,2013-10-22 01:02:00,
2013-10-21 21:07:00,55.0,42.3,29.94,WSW,245,0.0,0.0,62,0.00,OVC,,0.00,WeatherDisplay:10.37,2013-10-22 01:07:00,
2013-10-21 21:12:00,54.9,42.1,29.94,WSW,245,0.0,0.0,62,0.00,SCT,,0.00,WeatherDisplay:10.37,2013-10-22 01:12:00,
2013-10-21 21:17:00,54.7,41.9,29.94,WSW,245,0.1,0.0,62,0.00,SCT,,0.00,WeatherDisplay:10.37,2013-10-22 01:17:00,
2013-10-21 21:22:00,54.7,41.9,29.95,SW,222,1.1,1.1,62,0.00,SCT,,0.00,WeatherDisplay:10.37,2013-10-22 01:22:00,
2013-10-21 21:27:00,54.7,42.3,29.94,WSW,245,2.6,3.5,63,0.00,SCT,,0.00,WeatherDisplay:10.37,2013-10-22 01:27:00,
2013-10-21 21:32:00,54.7,42.3,29.95,WSW,245,0.0,0.0,63,0.00,SCT,,0.00,WeatherDisplay:10.37,2013-10-22 01:32:00,
2013-10-21 21:37:00,54.7,42.3,29.95,WSW,245,2.3,2.3,63,0.00,SCT,,0.00,WeatherDisplay:10.37,2013-10-22 01:37:00,
2013-10-21 21:42:00,54.7,42.3,29.94,SSW,199,1.3,1.3,63,0.00,SCT,,0.00,WeatherDisplay:10.37,2013-10-22 01:42:00,
2013-10-21 21:47:00,54.7,42.3,29.94,WSW,245,2.5,2.5,63,0.00,SCT,,0.00,WeatherDisplay:10.37,2013-10-22 01:47:00,
2013-10-21 21:52:00,54.7,42.3,29.94,WSW,245,2.5,2.5,63,0.00,SCT,,0.00,WeatherDisplay:10.37,2013-10-22 01:52:00,
2013-10-21 21:54:00,54.7,42.3,29.94,WSW,245,1.8,2.3,63,0.00,SCT,,0.00,WeatherDisplay:10.37,2013-10-22 01:54:00,
2013-10-21 21:59:00,54.7,42.3,29.94,SW,222,2.6,3.5,63,0.00,SCT,,0.00,WeatherDisplay:10.37,2013-10-22 01:59:00,
2013-10-21 22:04:00,54.9,42.9,29.94,West,267,1.3,2.3,64,0.00,SCT,,0.00,WeatherDisplay:10.37,2013-10-22 02:04:00,
2013-10-21 22:09:00,55.0,43.1,29.94,WSW,245,1.6,1.6,64,0.00,BKN,,0.00,WeatherDisplay:10.37,2013-10-22 02:09:00,
2013-10-21 22:14:00,55.0,43.1,29.94,WSW,245,1.6,2.3,64,0.00,BKN,,0.00,WeatherDisplay:10.37,2013-10-22 02:14:00,
2013-10-21 22:19:00,55.2,43.2,29.94,WSW,245,0.0,0.0,64,0.00,BKN,,0.00,WeatherDisplay:10.37,2013-10-22 02:19:00,
2013-10-21 22:24:00,55.0,43.1,29.93,WSW,245,0.0,2.3,64,0.00,BKN,,0.00,WeatherDisplay:10.37,2013-10-22 02:24:00,
2013-10-21 22:29:00,55.2,43.7,29.94,West,267,1.7,2.3,65,0.00,BKN,,0.00,WeatherDisplay:10.37,2013-10-22 02:29:00,
2013-10-21 22:34:00,55.2,44.1,29.94,NW,312,2.9,3.5,66,0.00,BKN,,0.00,WeatherDisplay:10.37,2013-10-22 02:34:00,
2013-10-21 22:39:00,55.6,44.4,29.94,WSW,245,2.5,2.5,66,0.00,BKN,,0.00,WeatherDisplay:10.37,2013-10-22 02:39:00,
2013-10-21 22:44:00,55.8,44.6,29.95,West,267,2.2,3.5,66,0.00,BKN,,0.00,WeatherDisplay:10.37,2013-10-22 02:44:00,
2013-10-21 22:49:00,55.8,44.6,29.95,NW,312,6.5,7.4,66,0.00,BKN,,0.00,WeatherDisplay:10.37,2013-10-22 02:49:00,
2013-10-21 22:54:00,55.8,45.0,29.94,WNW,289,2.2,2.3,67,0.00,BKN,,0.00,WeatherDisplay:10.37,2013-10-22 02:54:00,
2013-10-21 22:59:00,55.6,44.8,29.94,West,267,2.6,4.6,67,0.00,BKN,,0.00,WeatherDisplay:10.37,2013-10-22 02:59:00,
2013-10-21 23:04:00,55.6,44.8,29.94,West,267,0.0,0.0,67,0.00,BKN,,0.00,WeatherDisplay:10.37,2013-10-22 03:04:00,
2013-10-21 23:09:00,55.4,45.0,29.95,WNW,289,0.0,2.3,68,0.00,OVC,,0.00,WeatherDisplay:10.37,2013-10-22 03:09:00,
2013-10-21 23:14:00,55.2,44.8,29.95,NW,312,0.9,2.5,68,0.00,OVC,,0.00,WeatherDisplay:10.37,2013-10-22 03:14:00,
2013-10-21 23:19:00,55.2,45.2,29.95,West,267,0.4,3.5,69,0.00,OVC,,0.00,WeatherDisplay:10.37,2013-10-22 03:19:00,
2013-10-21 23:24:00,55.2,45.2,29.95,SW,222,2.2,2.3,69,0.00,OVC,,0.00,WeatherDisplay:10.37,2013-10-22 03:24:00,
2013-10-21 23:29:00,55.0,45.4,29.95,NW,312,0.4,2.5,70,0.00,OVC,,0.00,WeatherDisplay:10.37,2013-10-22 03:29:00,
2013-10-21 23:34:00,54.9,45.3,29.95,NW,312,4.7,4.7,70,0.00,OVC,,0.00,WeatherDisplay:10.37,2013-10-22 03:34:00,
2013-10-21 23:39:00,54.9,45.6,29.95,WNW,289,3.4,3.5,71,0.00,OVC,,0.00,WeatherDisplay:10.37,2013-10-22 03:39:00,
2013-10-21 23:44:00,54.7,45.5,29.95,NW,312,1.7,2.5,71,0.00,OVC,,0.00,WeatherDisplay:10.37,2013-10-22 03:44:00,
2013-10-21 23:49:00,54.5,45.3,29.95,WNW,289,3.3,3.5,71,0.00,OVC,,0.00,WeatherDisplay:10.37,2013-10-22 03:49:00,
2013-10-21 23:54:00,54.5,45.3,29.95,WNW,289,5.4,8.1,71,0.00,OVC,,0.00,WeatherDisplay:10.37,2013-10-22 03:54:00,
2013-10-21 23:59:00,54.3,45.5,29.95,NW,312,2.5,4.6,72,0.00,OVC,,0.00,WeatherDisplay:10.37,2013-10-22 03:59:00,